Shirley, NY

1:40 PM EST on November 21, 2019 (GMT -0500)
Brookhaven

Weather History for KHWV - October, 2019

Change the Weather History Date:

Tuesday, October 22, 2019

  Actual Average (WUND) Record (WUND)
Temperature  
Mean Temperature 54 °F -  
Max Temperature 63 °F - - (-1)
Min Temperature 48 °F - - (-1)
Degree Days  
Heating Degree Days 11    
Growing Degree Days 4 (Base 50)    
Moisture  
Dew Point 53 °F    
Average Humidity 88    
Maximum Humidity 97    
Minimum Humidity 80    
Precipitation  
Precipitation 0.18 in - - ()
Sea Level Pressure  
Sea Level Pressure 30.00 in    
Wind  
Wind Speed 3 mph (East)    
Max Wind Speed 9 mph    
Max Gust Speed -    
Visibility 7 miles    
Events Rain    
Averages and records for this station are not official NWS values.
T = Trace of Precipitation, MM = Missing Value Source: NWS Daily Summary

Daily Weather History Graph

Daily Weather History Graph

Search for Another Location

Airport or City:

Astronomy

Oct. 22, 2019 Rise Set
Actual Time 7:10 AM EDT 6:01 PM EDT
Civil Twilight 6:42 AM EDT 6:28 PM EDT
Nautical Twilight 6:10 AM EDT 7:00 PM EDT
Astronomical Twilight 5:38 AM EDT 7:32 PM EDT
Moon 12:13 AM EDT (10/22) 3:11 PM EDT (10/22)
Length of Visible Light 11h 46m
Length of Day
10h 50m
Last Quarter, 37% of the Moon is Illuminated
Oct 22
Last Quarter
Oct 27
New
Nov 4
First Quarter
Nov 12
Full
Nov 19
Last Quarter

Hourly Weather History & Observations

Time (EDT) Temp. Dew Point Humidity Pressure Visibility Wind Dir Wind Speed Gust Speed Precip Events Conditions
12:56 AM 48.9 °F 45.0 °F 86% 30.13 in 10.0 mi Calm Calm - N/A   Clear
1:56 AM 50.0 °F 45.0 °F 83% 30.13 in 10.0 mi Calm Calm - N/A   Partly Cloudy
2:56 AM 50.0 °F 45.0 °F 83% 30.09 in 10.0 mi Variable 3.5 mph - N/A   Clear
3:56 AM 50.0 °F 45.0 °F 83% 30.09 in 10.0 mi Calm Calm - N/A   Clear
4:16 AM 51.1 °F 46.0 °F 83% 30.08 in 10.0 mi Calm Calm - N/A   Mostly Cloudy
4:56 AM 51.1 °F 46.9 °F 86% 30.08 in 10.0 mi Calm Calm - N/A   Overcast
5:56 AM 52.0 °F 48.0 °F 86% 30.09 in 10.0 mi NNE 3.5 mph - N/A   Overcast
6:19 AM 53.1 °F 48.0 °F 83% 30.10 in 10.0 mi North 4.6 mph - N/A   Overcast
6:56 AM 53.1 °F 48.9 °F 86% 30.08 in 10.0 mi Variable 3.5 mph - N/A   Overcast
7:56 AM 54.0 °F 50.0 °F 86% 30.09 in 10.0 mi Calm Calm - N/A   Overcast
8:56 AM 55.0 °F 51.1 °F 86% 30.11 in 10.0 mi Calm Calm - N/A   Overcast
9:14 AM 55.9 °F 51.1 °F 84% 30.10 in 10.0 mi Variable 3.5 mph - N/A   Overcast
9:43 AM 57.0 °F 52.0 °F 83% 30.07 in 10.0 mi Calm Calm - N/A   Overcast
9:56 AM 57.0 °F 52.0 °F 83% 30.07 in 10.0 mi Variable 5.8 mph - N/A   Overcast
10:56 AM 57.9 °F 54.0 °F 87% 30.08 in 10.0 mi Variable 3.5 mph - N/A   Overcast
11:56 AM 59.0 °F 55.0 °F 87% 30.08 in 6.0 mi Variable 5.8 mph - N/A   Overcast
12:33 PM 59.0 °F 55.0 °F 87% 30.06 in 2.0 mi Calm Calm - N/A   Overcast
12:40 PM 59.0 °F 55.9 °F 90% 30.06 in 1.8 mi Calm Calm - N/A   Overcast
12:56 PM 59.0 °F 55.9 °F 90% 30.05 in 2.5 mi Variable 5.8 mph - N/A   Overcast
1:08 PM 59.0 °F 55.9 °F 90% 30.04 in 4.0 mi Variable 3.5 mph - N/A   Overcast
1:31 PM 59.0 °F 55.9 °F 90% 30.02 in 5.0 mi Variable 6.9 mph - N/A   Overcast
1:56 PM 59.0 °F 55.9 °F 90% 30.01 in 10.0 mi Variable 6.9 mph - N/A   Overcast
2:56 PM 59.0 °F 55.0 °F 87% 29.97 in 10.0 mi Variable 6.9 mph - N/A   Overcast
3:45 PM 60.1 °F 54.0 °F 80% 29.95 in 10.0 mi ESE 8.1 mph - N/A   Overcast
3:56 PM 60.1 °F 54.0 °F 80% 29.95 in 10.0 mi East 8.1 mph - N/A   Overcast
4:31 PM 59.0 °F 54.0 °F 83% 29.96 in 10.0 mi Variable 6.9 mph - N/A   Overcast
4:56 PM 59.0 °F 55.0 °F 87% 29.95 in 10.0 mi Variable 5.8 mph - N/A   Overcast
5:56 PM 57.9 °F 55.0 °F 90% 29.93 in 5.0 mi Variable 5.8 mph - N/A   Overcast
6:56 PM 59.0 °F 55.9 °F 90% 29.92 in 8.0 mi East 9.2 mph - N/A   Overcast
7:32 PM 59.0 °F 55.9 °F 90% 29.91 in 4.0 mi Variable 6.9 mph - N/A   Overcast
7:56 PM 59.0 °F 55.9 °F 90% 29.91 in 10.0 mi ESE 8.1 mph - N/A   Overcast
8:05 PM 59.0 °F 55.9 °F 90% 29.90 in 10.0 mi ESE 9.2 mph - N/A   Overcast
8:25 PM 59.0 °F 57.0 °F 93% 29.90 in 5.0 mi Variable 5.8 mph - N/A   Overcast
8:41 PM 59.0 °F 57.0 °F 93% 29.90 in 2.5 mi ESE 6.9 mph - N/A   Overcast
8:56 PM 59.0 °F 57.0 °F 93% 29.90 in 2.0 mi ESE 5.8 mph - N/A   Overcast
9:04 PM 59.0 °F 57.0 °F 93% 29.91 in 1.8 mi Variable 4.6 mph - N/A   Overcast
9:52 PM 60.8 °F 57.2 °F 88% 29.90 in 2.0 mi Variable 5.8 mph - 0.03 in Rain Light Rain
9:56 PM 60.1 °F 57.0 °F 90% 29.89 in 2.5 mi Variable 5.8 mph - 0.03 in Rain Light Rain
10:41 PM 60.1 °F 57.9 °F 93% 29.86 in 4.0 mi ESE 5.8 mph - 0.06 in Rain Light Rain
10:56 PM 60.1 °F 57.9 °F 93% 29.85 in 7.0 mi Variable 5.8 mph - 0.06 in Rain Light Rain
11:56 PM 61.0 °F 60.1 °F 97% 29.83 in 2.5 mi Variable 5.8 mph - 0.09 in Rain Rain